This demonstration page uses our WeatherBlox Daily Observations layout. Learn more.

Left ArrowRight Arrow

Hourly Observations for September 23, 2021

Temp ( °F °C ) Dew Point ( °F °C ) Humidity (%) Winds ( mph kmh ) Pressure ( in mb ) Visibility ( mi km ) Precip ( " mm )
12:53 am 00:53 Clear 59 15 34 1.1 39 39 W 7 11 29.89 1012 10 16 N/A
1:53 am 01:53 Clear 57 13.9 34 1.1 42 42 SW 9 15 29.91 1013 10 16 N/A
2:53 am 02:53 Clear 56 13.3 35 1.7 46 46 SSW 9 15 29.93 1013 10 16 N/A
3:53 am 03:53 Clear 55 12.8 35 1.7 47 47 SW 12 19 29.94 1014 10 16 N/A
4:53 am 04:53 Clear 54 12.2 35 1.7 49 49 WSW 10 17 29.96 1015 10 16 N/A
5:53 am 05:53 Clear 52 11.1 35 1.7 53 53 WSW 10 17 29.99 1016 10 16 N/A
6:53 am 06:53 Mostly Cloudy 50 10 36 2.2 59 59 N N/A 30.03 1017 10 16 N/A
7:53 am 07:53 Sunny 52 11.1 38 3.3 59 59 N N/A 30.07 1018 10 16 N/A
8:53 am 08:53 Sunny 55 12.8 38 3.3 53 53 W 7 11 30.09 1019 10 16 N/A
9:53 am 09:53 Sunny 59 15 39 3.9 48 48 WNW 6 9 30.10 1019 10 16 N/A
10:53 am 10:53 Sunny 61 16.1 40 4.4 46 46 WNW 6 9 30.11 1020 10 16 N/A
11:53 am 11:53 Sunny 64 17.8 41 5 43 43 VRB 3 6 30.11 1020 10 16 N/A
12:53 pm 12:53 Sunny 66 18.9 41 5 40 40 VRB 6 9 30.10 1019 10 16 N/A
1:53 pm 13:53 Sunny 67 19.4 42 5.6 41 41 W 5 7 30.08 1019 10 16 N/A
2:53 pm 14:53 Sunny 69 20.6 41 5 36 36 VRB 5 7 30.08 1019 10 16 N/A
3:53 pm 15:53 Sunny 72 22.2 37 2.8 28 28 WNW 13 20 30.08 1019 10 16 N/A
4:53 pm 16:53 Sunny 71 21.7 37 2.8 29 29 WNW 13 20 30.09 1019 10 16 N/A
5:53 pm 17:53 Mostly Sunny 68 20 33 0.6 27 27 NW 12 19 30.10 1019 10 16 N/A
6:53 pm 18:53 Cloudy 66 18.9 33 0.6 29 29 NNW 8 13 30.12 1020 10 16 N/A
7:53 pm 19:53 Cloudy 64 17.8 33 0.6 32 32 NNW 6 9 30.14 1021 10 16 N/A
8:53 pm 20:53 Cloudy 63 17.2 36 2.2 37 37 NNE 10 17 30.16 1021 10 16 N/A
9:53 pm 21:53 Cloudy 61 16.1 36 2.2 39 39 NNE 8 13 30.18 1022 10 16 N/A
10:53 pm 22:53 Mostly Cloudy 58 14.4 34 1.1 41 41 NE 10 17 30.20 1023 10 16 N/A
11:53 pm 23:53 Mostly Cloudy 55 12.8 32 undefined 42 42 ENE 7 11 30.21 1023 10 16 N/A

Powered by AerisWeather